Content
SEND FEEDBACK

Daily
Averages
Monthly
Summary
United States of America

AGAT, GUAM


Home > North America > United States > Guam
Elevation: 364 feet     Latitude: 13 33N     Longitude: 144 50E

WEATHER
 
SELECT A DAY
Number of Records: 208,860;   Date Range: 1/1/95 - 7/20/14
 
SHARE

PRINT THIS DATA

[ ← Previous Day ]
WEATHER ALMANAC - JULY 5, 2013
[ Next Day → ]
[ °C ]   °F
Weather ElementAverageHighLow
Temperature83.6 °F89.1 °F (2:54 pm)78.1 °F (4:54 am)
Dewpoint74.8 °F77 °F (10:54 pm)73 °F (3:54 am)
Humidity75.2 %90 % (7:54 am)61 % (2:54 pm)
Barometer29.83 in29.88 in (7:41 am)29.78 in (4:54 pm)
Wind Speed6.9 mph11.5 mph (9:54 am)
Wind Gust17.3 mph (7:41 am)
Weather ElementAverage
Visibility9 mi
Wind DirectionENE (75.8 °)

Weather ElementTotal
Precipitation0.20 in
Cooling Degree Days18.6 (Base 65)
Growing Degree Days33.6 (Base 50)
Averaged from 24 records on July 5, 2013
WEATHER CONDITIONS BREAKOUT
WIND DIRECTION BREAKOUT
WEATHER BY HOUR - JULY 5, 2013
[ °C ]   °F
Local TimeTemperatureDewpointHumidityBarometerVisibilityWind DirectionWind SpeedGust SpeedPrecipitationEventsConditions
1:54 AM82.0 °F73.9 °F76 %29.83 in10.0 miENE (70°)6.9 mphClear
2:54 AM80.1 °F73.9 °F81 %29.82 in10.0 miNE (40°)8.1 mphClear
3:54 AM79.0 °F73.0 °F82 %29.81 in10.0 miNE (50°)4.6 mphClear
4:54 AM78.1 °F73.0 °F84 %29.82 in10.0 miNE (50°)4.6 mphScattered Clouds
5:54 AM78.1 °F73.9 °F87 %29.83 in4.0 miENE (60°)5.8 mph0.04 inRainRain
6:54 AM80.1 °F75.0 °F85 %29.84 in10.0 miCalm0.01 inMostly Cloudy
7:41 AM80.6 °F75.2 °F84 %29.88 in1.8 miNE (50°)10.4 mph17.3 mph0.02 inRainHeavy Rain
7:54 AM79.0 °F75.9 °F90 %29.87 in3.0 miENE (70°)4.6 mph0.10 inRainLight Rain
8:54 AM82.9 °F75.9 °F79 %29.86 in10.0 miENE (60°)3.5 mph0.03 inOvercast
9:54 AM87.1 °F75.9 °F69 %29.86 in10.0 miEast (90°)11.5 mphMostly Cloudy
10:54 AM82.9 °F75.9 °F79 %29.86 in10.0 miSE (140°)5.8 mph0.00 inScattered Clouds
11:54 AM87.1 °F75.0 °F67 %29.85 in10.0 miEast (100°)8.1 mphPartly Cloudy
12:54 PM88.0 °F75.0 °F65 %29.82 in10.0 miEast (100°)9.2 mphPartly Cloudy
1:54 PM88.0 °F73.9 °F63 %29.81 in10.0 miESE (110°)10.4 mphPartly Cloudy
2:54 PM89.1 °F73.9 °F61 %29.80 in10.0 miEast (90°)9.2 mphPartly Cloudy
3:54 PM89.1 °F73.9 °F61 %29.79 in10.0 miESE (110°)10.4 mphPartly Cloudy
4:54 PM88.0 °F73.9 °F63 %29.78 in10.0 miEast (80°)8.1 mphPartly Cloudy
5:54 PM87.1 °F73.0 °F63 %29.80 in10.0 miEast (80°)10.4 mphPartly Cloudy
6:54 PM84.0 °F75.9 °F76 %29.81 in8.0 miENE (70°)8.1 mph0.00 inRainLight Rain
7:54 PM84.0 °F75.9 °F76 %29.83 in10.0 miENE (70°)4.6 mph0.00 inScattered Clouds
8:54 PM84.0 °F75.9 °F76 %29.83 in10.0 miENE (70°)5.8 mphScattered Clouds
9:54 PM82.9 °F75.0 °F77 %29.84 in10.0 miEast (100°)4.6 mphPartly Cloudy
10:54 PM82.9 °F77.0 °F82 %29.85 in10.0 miEast (80°)5.8 mphMostly Cloudy
11:54 PM82.9 °F75.9 °F79 %29.84 in10.0 miEast (80°)5.8 mphPartly Cloudy
Hourly data recorded from PGUM, located miles away from Agat, Guam







STORIES FROM OUR PARTNERS